Regional Weather Roundup
Issued by NWS

Home | Current Version | Previous Version | Text Only | Print | Product List | Glossary Off
Versions: 1 2 3 4 5 6 7 8 9 10 11 12 13 14 15 16 17 18 19 20 21 22 23 24 25 26 27 28 29 30 31 32 33 34 35 36 37 38 39 40 41 42 43 44 45 46 47 48 49 50

451
ASUS43 KLOT 220012
RWRIL

ILLINOIS REGIONAL WEATHER ROUNDUP
NATIONAL WEATHER SERVICE CHICAGO/ROMEOVILLE IL
600 PM CST SAT JAN 21 2017

NOTE: "FAIR" INDICATES FEW OR NO CLOUDS BELOW 12,000 FEET WITH NO
SIGNIFICANT WEATHER AND/OR OBSTRUCTIONS TO VISIBILITY.

* THESE STATIONS ARE NOT UNDER NWS QUALITY CONTROL. THEY ALSO MAY NOT
  REPORT WEATHER SUCH AS PRECIPITATION OR FOG.

ILZ001-002-007-009-015-016-024-220100-
NORTHWEST ILLINOIS

CITY           SKY/WX    TMP DP  RH WIND       PRES   REMARKS
MOLINE         PTCLDY    44  40  85 W6        29.54R
6HR MIN TEMP:  44; 6HR MAX TEMP:  53;

STERLING*      CLEAR     41  40  96 NW6       29.55R FOG
SAVANNA*       CLOUDY    43  42  97 SW6       29.55R FOG
$$

ILZ003-004-008-010-011-017-018-220100-
NORTH CENTRAL ILLINOIS

CITY           SKY/WX    TMP DP  RH WIND       PRES   REMARKS
ROCKFORD       CLOUDY    44  42  93 W6        29.56R FOG
6HR MIN TEMP:  44; 6HR MAX TEMP:  55;

FREEPORT*      CLOUDY    42  41  97 W5        29.55R FOG
ROCHELLE*      MOCLDY    43  42  97 W9        29.54R FOG
DE KALB*       CLEAR     47  44  89 SW7       29.53R
$$

ILZ005-006-012>014-019>023-220100-
NORTHEAST ILLINOIS

CITY           SKY/WX    TMP DP  RH WIND       PRES   REMARKS
CHICAGO-OHARE  PTCLDY    51  43  74 SW3       29.52R
6HR MIN TEMP:  51; 6HR MAX TEMP:  59;

CHICAGO-MIDWAY PTCLDY    53  42  66 SW5       29.53R
6HR MIN TEMP:  53; 6HR MAX TEMP:  60;

AURORA         CLEAR     48  43  82 SW5       29.53R
6HR MIN TEMP:  48; 6HR MAX TEMP:  59;

LANSING*       CLEAR     51  47  87 SW5       29.54R
JOLIET*        CLEAR     47  43  86 CALM      29.54R
WAUKEGAN       CLEAR     44  40  85 SW3       29.51R
6HR MIN TEMP:  43; 6HR MAX TEMP:  58;

DUPAGE AIRPORT CLEAR     47  41  80 SW5       29.52R
6HR MIN TEMP:  47; 6HR MAX TEMP:  59;

KANKAKEE*      CLEAR     49  46  90 CALM      29.55R
WHEELING       CLEAR     51  42  71 SW5       29.53R
6HR MIN TEMP:  51; 6HR MAX TEMP:  59;

MORRIS*        CLEAR     49  44  84 CALM      29.53R
ROMEOVILLE*    CLEAR     49  46  87 W3        29.53R
NORTHERLY ISL    N/A     55  42  61 SW3         N/A
$$

LMZ740>746-220100-
SOUTHERN LAKE MICHIGAN

STATION/POSITION SKY/WX   TEMP    WIND        PRES    VSBY  WAVE
                          AIR SEA DIR/SP/G                  HT/PER
                          (F)     (DEG/KT/KT) (MB)    (MI)  (FT/S)
HARRISON CRIB              57     240/  8/ 12   N/A
BURNHAM HARBOR             55     210/  3/  8   N/A
CALUMET HARBOR                    200/  5/  7  999.6R
BURNS HARBOR               55     210/  8/  9 1001.0R
MICHIGAN CITY              58     180/  5/  5   N/A
$$

ILZ025>027-034>036-040-047-049-050-058-095>099-220100-
WEST-CENTRAL ILLINOIS

CITY           SKY/WX    TMP DP  RH WIND       PRES   REMARKS
QUINCY         PTCLDY    50  42  74 CALM      29.53R
GALESBURG*     CLEAR     43  42  94 CALM      29.54R
MACOMB*        CLEAR     46  44  93 CALM      29.56R
JACKSONVILLE*  CLOUDY    50  42  73 W5        29.53R
PITTSFIELD*    PTCLDY    51  41  69 NW3       29.54R
$$

ILZ028>032-037-038-041>044-048-051>054-059>061-220100-
CENTRAL ILLINOIS

CITY           SKY/WX    TMP DP  RH WIND       PRES   REMARKS
PONTIAC        CLEAR     52  45  76 SW7       29.55R
BLOOMINGTON    CLEAR     52  43  71 SW3       29.55R
DECATUR        PTCLDY    54  49  83 CALM      29.54R
PEORIA         CLEAR     50  42  74 CALM      29.54R
6HR MIN TEMP:  50; 6HR MAX TEMP:  60;

LACON*         CLEAR     45  41  88 CALM      29.54R
LINCOLN*       CLEAR     53  44  74 CALM      29.54R
SPRINGFIELD    CLOUDY    54  46  74 CALM      29.53R
6HR MIN TEMP:  52; 6HR MAX TEMP:  65;

TAYLORVILLE    PTCLDY    55  50  83 CALM      29.53S
6HR MIN TEMP:  55; 6HR MAX TEMP:  63;

$$

ILZ033-039-045-046-055>057-062-063-220100-
EAST-CENTRAL ILLINOIS

CITY           SKY/WX    TMP DP  RH WIND       PRES   REMARKS
CHAMPAIGN      CLEAR     52  47  83 S6        29.55R
RANTOUL*       CLEAR     54  50  85 SW3       29.55R
MATTOON        PTCLDY    58  48  69 SE3       29.54R
PARIS*         CLEAR     53  51  94 S5        29.56R
$$

ILZ079-100>102-220100-
SOUTHWEST ILLINOIS

CITY           SKY/WX    TMP DP  RH WIND       PRES   REMARKS
ALTON          PTCLDY    57  46  67 CALM      29.53R
BELLEVILLE     MOCLDY    58  49  71 E5        29.52R
CAHOKIA*       MOCLDY    63  43  48 CALM      29.52R
SPARTA*        PTCLDY    61  54  77 SE6       29.55R
$$

ILZ064>066-069>071-074>076-080>082-084>086-088>090-092>094-220100-
SOUTH-CENTRAL ILLINOIS

CITY           SKY/WX    TMP DP  RH WIND       PRES   REMARKS
CARBONDALE     PTCLDY    60  53  77 S3        29.55S
6HR MIN TEMP:  60; 6HR MAX TEMP:  68;

CAIRO*         PTCLDY    62  53  72 CALM      29.56S
EFFINGHAM*     PTCLDY    61  53  76 SE5       29.57R
MARION         MOCLDY    61  54  77 S6        29.57R
MT. VERNON     PTCLDY    59  52  77 CALM      29.56R
CENTRALIA*     PTCLDY    60  55  82 S9        29.54R
SALEM*         PTCLDY    63  53  70 S8        29.55R
METROPOLIS*    CLOUDY    63  51  64 CALM      29.58R
$$

ILZ067-068-072-073-078-083-087-091-220100-
SOUTHEAST ILLINOIS

CITY           SKY/WX    TMP DP  RH WIND       PRES   REMARKS
LAWRENCEVILLE  MOCLDY    57  53  86 S7        29.58R
FLORA*         CLOUDY    59  52  78 S8        29.56R
FAIRFIELD*     PTCLDY    61  52  71 CALM      29.56R
HARRISBURG*    CLOUDY    64  51  63 S3        29.57S
ROBINSON*      MOCLDY    57  51  81 S6        29.57R
CARMI*         MOCLDY    56  53  86 SE6       29.57R
$$

ABBREVIATIONS USED IN REMARKS
   TC - TEMPERATURE IN CELSIUS
  WCI - WIND CHILL INDEX
   HX - HEAT INDEX
  VSB - VISIBILITY
$$





USA.gov is the U.S. government's official web portal to all federal, state and local government web resources and services.